Location: Stamford Observatory
(41.1241°N, 73.5498°W)
Time: 20:18:22
(UTC-04:00)

IRS-P3 - Visible Passes

Search period start: 24 June 2017 00:00
Search period end: 04 July 2017 00:00
Orbit: 814 x 820 km, 98.7° (Epoch: 24 June)

Date Brightness Start Highest point End Pass type
(mag) Time Alt. Az. Time Alt. Az. Time Alt. Az.
24 Jun 6.3 01:11:54 10° ENE 01:14:22 13° E 01:15:44 12° ESE visible
24 Jun 4.1 02:49:35 10° N 02:54:56 76° WNW 02:57:02 38° SSW visible
24 Jun 6.3 04:32:56 10° NW 04:34:01 11° WNW 04:35:05 10° WNW visible
25 Jun 4.2 02:27:53 10° NNE 02:33:14 70° ESE 02:35:02 42° S visible
25 Jun 6.0 04:09:24 10° NNW 04:12:38 17° WNW 04:15:52 10° W visible
26 Jun 4.9 02:06:21 10° NNE 02:11:27 44° E 02:13:02 35° SE visible
26 Jun 5.5 03:46:56 10° NNW 03:51:11 25° WNW 03:54:19 15° WSW visible
27 Jun 5.5 01:45:03 10° NE 01:49:37 28° E 01:51:02 25° ESE visible
27 Jun 4.9 03:24:46 10° N 03:29:40 37° WNW 03:32:19 23° WSW visible
28 Jun 6.0 01:24:10 10° NE 01:27:42 18° E 01:29:02 16° ESE visible
28 Jun 4.3 03:02:49 10° N 03:08:04 58° WNW 03:10:19 33° SW visible
29 Jun 6.5 01:04:36 10° ENE 01:05:43 11° E 01:06:50 10° E visible
29 Jun 4.1 02:41:01 10° NNE 02:46:24 90° WNW 02:48:18 42° SSW visible
29 Jun 6.2 04:23:22 10° NNW 04:25:37 13° WNW 04:27:53 10° W visible
30 Jun 4.4 02:19:23 10° NNE 02:24:41 58° E 02:26:18 41° SSE visible
30 Jun 5.8 04:00:30 10° NNW 04:04:13 19° WNW 04:07:35 11° WSW visible
01 Jul 5.1 01:57:56 10° NNE 02:02:53 36° E 02:04:18 31° SE visible
01 Jul 5.3 03:38:11 10° N 03:42:43 29° WNW 03:45:35 18° WSW visible
02 Jul 5.7 01:36:47 10° NE 01:41:00 23° E 01:42:17 21° ESE visible
02 Jul 4.7 03:16:07 10° N 03:21:11 44° WNW 03:23:35 28° WSW visible
03 Jul 6.2 01:16:09 10° ENE 01:19:04 15° E 01:20:16 14° ESE visible
03 Jul 4.2 02:54:14 10° N 02:59:33 70° WNW 03:01:33 39° SW visible
